Location: Bayshore Village Mobile Home Park
(26.6945°N, 81.8642°W)
Time: 23:58:50
(UTC+00:00)

Cosmos 407 Rocket - Pass Details

Date: 17 June 2021
Orbit: 744 x 786 km, 74.0° (Epoch: 05 August)

Event Time Altitude Azimuth Distance (km) Brightness Sun altitude
Rises 02:09:11 0° 338° (NNW) 3,254 7.9 -20.6°
Reaches altitude 10° 02:11:38 10° 333° (NNW) 2,319 7.0 -21.0°
Maximum altitude 02:16:44 53° 258° (WSW) 941 4.1 -21.8°
Enters shadow 02:19:16 28° 195° (SSW) 1,411 4.6 -22.2°
